Other Public Products
Issued by NWS Charleston, SC

Current Version | Previous Version | Graphics & Text | Print | Product List | Glossary On
Versions: 1 2 3 4 5 6 7 8 9 10 11 12 13 14 15 16 17 18 19 20 21 22 23 24 25 26 27 28 29 30 31 32 33 34 35 36 37 38 39 40 41 42 43 44 45 46 47 48 49 50
239
FPUS82 KCHS 111227
OPUCHS

TEST...KCHS/KSAV Gateway Observations...TEST
National Weather Service Charleston SC
700 AM EST SUN DEC 11 2016

NOTE: "fair" indicates few or no clouds below 12,000 feet with no
significant weather and/or obstructions to visibility.

SCZ050-WAZ558-NCZ071-TXZ119-213-PAZ071-DCZ001-FLZ074-172-MI076-
NYZ176-178-MAZ016-IL014-TNZ027-NJZ106-GAZ044-MD014-111300-
...Gateway Observations for Charleston International...

CITY           SKY/WX    TMP DP  RH WIND       PRES   REMARKS
Chas Airport   MOCLDY    39  29  67 NE9       30.43S WCI  33
6HR MIN TEMP:  31; 6HR MAX TEMP:  39;

Seattle        LGT RAIN  41  37  86 S13       29.93R
6HR MIN TEMP:  41; 6HR MAX TEMP:  42; 6HR PCP:  0.09;

Charlotte      PTCLDY    28  19  69 CALM      30.46R
6HR MIN TEMP:  22; 6HR MAX TEMP:  31;

Dallas DFW     CLOUDY    49  45  86 S13       29.96S
6HR MIN TEMP:  49; 6HR MAX TEMP:  50; 6HR PCP: TRACE;

Dallas Love    LGT RAIN  51  45  79 S14G22    29.98F
6HR MIN TEMP:  49; 6HR MAX TEMP:  51; 6HR PCP: TRACE;

Philladelphia  CLOUDY    30  15  53 SW3       30.56R
6HR MIN TEMP:  28; 6HR MAX TEMP:  30;

Wash National  CLOUDY    31  16  54 N5        30.55F WCI  26
6HR MIN TEMP:  29; 6HR MAX TEMP:  31;

Baltimore      CLOUDY    28  18  66 W3        30.56R
6HR MIN TEMP:  25; 6HR MAX TEMP:  28;

Miami          CLOUDY    73  67  81 E12G22    30.18R
6HR MIN TEMP:  69; 6HR MAX TEMP:  73; 6HR PCP:  0.05;

Detroit        LGT SNOW  24  23  96 S7        30.29F FOG     WCI  16
6HR MIN TEMP:  23; 6HR MAX TEMP:  25; 6HR PCP:  0.05;

Newark         CLOUDY    25  17  72 SW6       30.53S WCI  18
6HR MIN TEMP:  25; 6HR MAX TEMP:  28;

Laguardia      MOCLDY    31  15  52 NW6       30.53R WCI  25
6HR MIN TEMP:  30; 6HR MAX TEMP:  32;

J F K          CLOUDY    29  14  53 N3        30.54R
6HR MIN TEMP:  28; 6HR MAX TEMP:  31;

Boston Logan   PTCLDY    21  11  65 N5        30.52R WCI  15
6HR MIN TEMP:  20; 6HR MAX TEMP:  22;

Ft. Lauderdale LGT RAIN  73  68  84 E12G22    30.17R
6HR MIN TEMP:  73; 6HR MAX TEMP:  74; 6HR PCP: TRACE;

Chicago O`Hare CLOUDY    26  22  84 SE15      30.07F FOG     WCI  14
6HR MIN TEMP:  23; 6HR MAX TEMP:  26; 6HR PCP:  0.06;

Chicago Midway CLOUDY    27  21  78 SE12      30.09F WCI  17
6HR MIN TEMP:  25; 6HR MAX TEMP:  27; 6HR PCP:  0.02;

Houston Bush   CLOUDY    62  58  86 SE7       30.08S
6HR MIN TEMP:  52; 6HR MAX TEMP:  63;

Houston Hobby  CLOUDY    65  60  84 SE12      30.07F
6HR MIN TEMP:  59; 6HR MAX TEMP:  65;

Nashville      CLOUDY    35  14  42 S3        30.28F
6HR MIN TEMP:  24; 6HR MAX TEMP:  35;

Atlanta        MOCLDY    33  24  69 E8        30.37S WCI  26
6HR MIN TEMP:  30; 6HR MAX TEMP:  37;


$$

GAZ044-118-TXZ119-213-NCZ071-DCZ001-MDZ014-506-PAZ021-071-NJZ106-
NYZ176-178-MAZ106-OHZ011-021-055-MIZ076-KYZ091-ILZ014-INZ047-
MNZ060-111300-
...Gateway Observations for Savannah International...

CITY           SKY/WX    TMP DP  RH WIND       PRES   REMARKS
Savannah Arpt  PTCLDY    40  31  70 N7        30.39S WCI  35
6HR MIN TEMP:  38; 6HR MAX TEMP:  42;

Atlanta        MOCLDY    33  24  69 E8        30.37S WCI  26
6HR MIN TEMP:  30; 6HR MAX TEMP:  37;

Charlotte      PTCLDY    28  19  69 CALM      30.46R
6HR MIN TEMP:  22; 6HR MAX TEMP:  31;

Dallas DFW     CLOUDY    49  45  86 S13       29.96S
6HR MIN TEMP:  49; 6HR MAX TEMP:  50; 6HR PCP: TRACE;

Houston Bush   CLOUDY    62  58  86 SE7       30.08S
6HR MIN TEMP:  52; 6HR MAX TEMP:  63;

Wash National  CLOUDY    31  16  54 N5        30.55F WCI  26
6HR MIN TEMP:  29; 6HR MAX TEMP:  31;

Wash Dulles    CLOUDY    26  15  63 CALM      30.53F
6HR MIN TEMP:  22; 6HR MAX TEMP:  27;

Baltimore      CLOUDY    28  18  66 W3        30.56R
6HR MIN TEMP:  25; 6HR MAX TEMP:  28;

Philadelphia   CLOUDY    30  15  53 SW3       30.56R
6HR MIN TEMP:  28; 6HR MAX TEMP:  30;

Newark         CLOUDY    25  17  72 SW6       30.53S WCI  18
6HR MIN TEMP:  25; 6HR MAX TEMP:  28;

Laguardia      MOCLDY    31  15  52 NW6       30.53R WCI  25
6HR MIN TEMP:  30; 6HR MAX TEMP:  32;

J F K          CLOUDY    29  14  53 N3        30.54R
6HR MIN TEMP:  28; 6HR MAX TEMP:  31;

Boston         PTCLDY    21  11  65 N5        30.52R WCI  15
6HR MIN TEMP:  20; 6HR MAX TEMP:  22;

Pittsburg      LGT SNOW  24  21  88 SE7       30.37F FOG     WCI  16
6HR MIN TEMP:  23; 6HR MAX TEMP:  25; 6HR PCP:  0.05;

Akron          LGT SNOW  23  19  85 S9        30.34F FOG     WCI  13
6HR MIN TEMP:  23; 6HR MAX TEMP:  23; 6HR PCP:  0.07;

Cleveland      LGT SNOW  25  20  81 SE8       30.37F WCI  16
6HR MIN TEMP:  25; 6HR MAX TEMP:  27; 6HR PCP:  0.03;

Cincinnati     CLOUDY    30  18  60 SE9       30.27F WCI  22
6HR MIN TEMP:  29; 6HR MAX TEMP:  30;

Columbus         N/A     26  22  87 SE6       30.33S WCI  19
Detroit        LGT SNOW  24  23  96 S7        30.29F FOG     WCI  16
6HR MIN TEMP:  23; 6HR MAX TEMP:  25; 6HR PCP:  0.05;

Chicago O`Hare CLOUDY    26  22  84 SE15      30.07F FOG     WCI  14
6HR MIN TEMP:  23; 6HR MAX TEMP:  26; 6HR PCP:  0.06;

Minneapolis    SNOW      17  13  84 E9        29.97S VSB 1/2 WCI   6
6HR MIN TEMP:  14; 6HR MAX TEMP:  17; 6HR PCP:  0.17;

Indianapolis   CLOUDY    30  19  63 SE14      30.17F WCI  19
6HR MIN TEMP:  27; 6HR MAX TEMP:  30; 6HR PCP: TRACE;


$$




USA.gov is the U.S. government's official web portal to all federal, state and local government web resources and services.